| time (UTC) | temp C | wind direction | speed KPH | gust KPH | rain 1hr cm | rain 24hr cm | rain mn cm | humidity % | barometer mb |
| 20260507053500 | 20 | 0.0 | 0.0 | 0.00 | 0.00 | 0.00 | 40 | 970.0 | |
| 20260507043500 | 18 | 0.0 | 0.0 | 0.00 | 0.00 | 0.00 | 44 | 970.0 | |
| 20260507033501 | 18 | 0.0 | 0.0 | 0.00 | 0.00 | 0.00 | 41 | 969.0 | |
| 20260507013500 | 18 | 0.0 | 0.0 | 0.00 | 0.00 | 0.00 | 55 | 969.0 | |
| 20260507003500 | 20 | 0.0 | 0.0 | 0.00 | 0.00 | 0.00 | 41 | 969.0 | |
| 20260506233502 | 20 | 0.0 | 0.0 | 0.00 | 0.00 | 0.00 | 39 | 969.0 | |
| 20260506223500 | 20 | 0.0 | 0.0 | 0.00 | 0.00 | 0.00 | 37 | 969.0 | |
| 20260506213500 | 20 | 0.0 | 0.0 | 0.00 | 0.00 | 0.00 | 35 | 969.0 | |
| 20260506203501 | 20 | 0.0 | 0.0 | 0.00 | 0.00 | 0.00 | 34 | 969.0 | |
| 20260506193500 | 21 | 0.0 | 0.0 | 0.00 | 0.00 | 0.00 | 34 | 969.0 | |
| 20260506183500 | 21 | 0.0 | 0.0 | 0.00 | 0.00 | 0.00 | 32 | 969.0 | |
| 20260506173500 | 23 | 0.0 | 0.0 | 0.00 | 0.00 | 0.00 | 29 | 968.0 | |
| 20260506163500 | 27 | 0.0 | 0.0 | 0.00 | 0.00 | 0.00 | 23 | 968.0 | |
| 20260506153501 | 32 | 0.0 | 0.0 | 0.00 | 0.00 | 0.00 | 19 | 968.0 | |
| 20260506143500 | 30 | 0.0 | 0.0 | 0.00 | 0.00 | 0.00 | 22 | 968.0 | |
| 20260506133500 | 30 | 0.0 | 0.0 | 0.00 | 0.00 | 0.00 | 23 | 968.0 | |
| 20260506123500 | 26 | 0.0 | 0.0 | 0.00 | 0.00 | 0.00 | 25 | 968.0 | |
| 20260506113500 | 25 | 0.0 | 0.0 | 0.00 | 0.00 | 0.00 | 28 | 968.0 | |
| 20260506093501 | 22 | 0.0 | 0.0 | 0.00 | 0.00 | 0.00 | 27 | 969.0 | |
| 20260506083500 | 21 | 0.0 | 0.0 | 0.00 | 0.00 | 0.00 | 30 | 968.0 | |
| 20260506073500 | 20 | 0.0 | 0.0 | 0.00 | 0.00 | 0.00 | 34 | 968.0 |